Voltar ao catálogo

COSMOS 2535 DEB

AtivoSSO
NORAD 44640·DEBRIS·🇷🇺 Russia

Lançado Jul 10, 2019 de Plesetsk Cosmodrome

Loading…

Próximas Passagens (próximas 24 horas)

TLE

AtualizadoSource: Space-Track

Época: Sep 13, 2026, 04:09 UTC

1 44640U 19039L   26256.17303490  .00000776  00000-0  10796-3 0  9994
2 44640  97.7730 237.5015 0059516 146.2295 214.2731 14.79400019373492

Acompanhe COSMOS 2535 DEB em tempo real com AllMySat

Download on the App Store